Terug naar catalogus

ONEWEB-0210

ActiefCommunicatiePO
NORAD 48787·PAYLOAD·🇬🇧 United Kingdom

Gelanceerd May 28, 2021 vanaf Vostochny Cosmodrome

Loading…

Volgende Passages (komende 24 uur)

TLE

VersSource: CelesTrak SupGP

Epoch: Sep 14, 2026, 23:35 UTC

1 48787C 21045W   26257.98317546 -.00001869  00000+0 -49707-2 0  2572
2 48787  87.8985 241.2867 0002765  75.8144 319.3870 13.15547897    12

Volg ONEWEB-0210 in realtime met AllMySat

Download on the App Store